STARLINK-4016 (52603 NORAD) Tracking and Keplerian Element Data
This shows tracking and keplerian element data for the satellite.
Feedback or suggestion? Click here.
Element | Value |
Catalog | 52603 |
Name | STARLINK-4016 |
Epoch Orbit | 130 |
Epoch Day | 167.08334491 |
Epoch Year | 2022 |
RAAN | 280.9439 |
Inclination | 53.2176 |
Eccentricity | 0.0001304 |
Argument of Perigee | 49.3106 |
Mean Anonmoly | 261.1073 |
Mean Motion | 15.54120411 |
Decay Rate | -0.00715123 |
L1 | 1 52603U 22052F 22167.08334491 -.00715123 00000+0 -11828-1 0 9998 |
L2 | 2 52603 53.2176 280.9439 0001304 49.3106 261.1073 15.54120411 1306 |
Live tracking and technical data element details for STARLINK-4016 (NORAD 52603). STARLINK-4016 can be tracked NOW for your location showing map with azimuth and elevation plus other details from your city location.
Track the satellite on the map from your city or location and see movement details for azimuth, elevation, latitude, longitude, range, height, and movement on the map or in text.
IsCatalogInMostPopularTable: catalog: 52603, numindb: 1
Update: records affected: 1
GetName: 52603 STARLINK-4016
Hit Count: updated at: Mon, 27 Jun 2022 05:43:22 GMT